• In Latvia
  • List of Countries
  • For 7 days
  • Water Temperature
  • Satellite Maps
  • Weather Map
  • Weather Widgets
  • user-avatar
    Login

    Hourly Weather Malanje

    Today, 28 March, Tuesday

    Time Temperature Precipitation Wind Pressure Humidity
    00:00 +22°C° 0.3 mm 1 mps 665 mmHg 90%
    01:00 +21°C° 0.3 mm 1 mps 665 mmHg 91%
    02:00 +21°C° 0.4 mm 1 mps 665 mmHg 92%
    03:00 +21°C° 0.4 mm 1 mps 665 mmHg 93%
    04:00 +18°C° 0.4 mm 0 mps 665 mmHg 94%
    05:00 +21°C° 0.6 mm 1 mps 665 mmHg 93%
    06:00 +21°C° 0.6 mm 1 mps 666 mmHg 93%
    07:00 +21°C° 0 mm 2 mps 666 mmHg 90%
    08:00 +24°C° 0 mm 2 mps 667 mmHg 82%
    09:00 +26°C° 0 mm 3 mps 667 mmHg 74%
    10:00 +27°C° 0 mm 3 mps 667 mmHg 67%
    11:00 +28°C° 0.2 mm 3 mps 667 mmHg 63%
    12:00 +29°C° 0.2 mm 3 mps 666 mmHg 60%
    13:00 +30°C° 0.2 mm 2 mps 666 mmHg 57%
    14:00 +30°C° 0.2 mm 2 mps 665 mmHg 57%
    15:00 +30°C° 0.2 mm 1 mps 665 mmHg 57%
    16:00 +28°C° 0.2 mm 0 mps 664 mmHg 58%
    17:00 +26°C° 2.4 mm 0 mps 664 mmHg 67%
    18:00 +23°C° 2.4 mm 0 mps 663 mmHg 77%
    19:00 +21°C° 2.4 mm 0 mps 663 mmHg 87%
    20:00 +20°C° 1.2 mm 0 mps 664 mmHg 87%
    21:00 +22°C° 1.2 mm 1 mps 664 mmHg 87%
    22:00 +22°C° 1.2 mm 1 mps 665 mmHg 86%
    23:00 +22°C° 0.5 mm 1 mps 665 mmHg 87%

    Tomorrow, 29 March, Wednesday

    Time Temperature Precipitation Wind Pressure Humidity
    00:00 +22°C° 0.5 mm 1 mps 665 mmHg 88%
    01:00 +21°C° 0.5 mm 2 mps 665 mmHg 88%
    02:00 +20°C° 0.1 mm 2 mps 664 mmHg 90%
    03:00 +20°C° 0.1 mm 2 mps 664 mmHg 91%
    04:00 +20°C° 0.1 mm 2 mps 664 mmHg 92%
    05:00 +20°C° 0.2 mm 2 mps 664 mmHg 92%
    06:00 +20°C° 0.2 mm 2 mps 665 mmHg 93%
    07:00 +20°C° 0.2 mm 2 mps 665 mmHg 93%
    08:00 +22°C° 0 mm 3 mps 665 mmHg 85%
    09:00 +25°C° 0 mm 3 mps 666 mmHg 77%
    10:00 +27°C° 0 mm 4 mps 666 mmHg 70%
    11:00 +27°C° 0.2 mm 4 mps 666 mmHg 67%
    12:00 +28°C° 0.2 mm 4 mps 665 mmHg 64%
    13:00 +29°C° 0.2 mm 4 mps 665 mmHg 62%
    14:00 +29°C° 0.4 mm 3 mps 664 mmHg 63%
    15:00 +29°C° 0.4 mm 3 mps 663 mmHg 65%
    16:00 +29°C° 0.4 mm 3 mps 663 mmHg 66%
    17:00 +27°C° 2.4 mm 2 mps 663 mmHg 74%
    18:00 +25°C° 2.4 mm 2 mps 663 mmHg 82%
    19:00 +23°C° 2.4 mm 1 mps 663 mmHg 90%
    20:00 +23°C° 1.4 mm 1 mps 664 mmHg 90%
    21:00 +22°C° 1.4 mm 1 mps 664 mmHg 91%
    22:00 +22°C° 1.4 mm 1 mps 665 mmHg 92%
    23:00 +22°C° 0.8 mm 1 mps 665 mmHg 93%

    Day after tomorrow, 30 March, Thursday

    Time Temperature Precipitation Wind Pressure Humidity
    00:00 +21°C° 0.8 mm 1 mps 665 mmHg 94%
    01:00 +21°C° 0.8 mm 1 mps 664 mmHg 96%
    02:00 +21°C° 0.3 mm 1 mps 664 mmHg 96%
    03:00 +21°C° 0.3 mm 1 mps 664 mmHg 96%
    04:00 +20°C° 0.3 mm 1 mps 664 mmHg 97%
    05:00 +19°C° 0.4 mm 0 mps 664 mmHg 96%
    06:00 +19°C° 0.4 mm 0 mps 665 mmHg 96%
    07:00 +19°C° 0.4 mm 0 mps 665 mmHg 95%
    08:00 +20°C° 0.5 mm 0 mps 666 mmHg 93%
    09:00 +23°C° 0.5 mm 1 mps 666 mmHg 91%
    10:00 +23°C° 0.5 mm 1 mps 667 mmHg 89%
    11:00 +24°C° 0.4 mm 1 mps 666 mmHg 86%
    12:00 +25°C° 0.4 mm 1 mps 666 mmHg 83%
    13:00 +26°C° 0.4 mm 2 mps 665 mmHg 80%
    14:00 +25°C° 0.4 mm 2 mps 665 mmHg 81%
    15:00 +25°C° 0.4 mm 2 mps 664 mmHg 83%
    16:00 +25°C° 0.4 mm 2 mps 664 mmHg 84%
    17:00 +24°C° 0.2 mm 2 mps 664 mmHg 87%
    18:00 +23°C° 0.2 mm 2 mps 664 mmHg 90%
    19:00 +21°C° 0.2 mm 2 mps 665 mmHg 93%
    20:00 +21°C° 0.3 mm 1 mps 665 mmHg 94%
    21:00 +21°C° 0.3 mm 1 mps 665 mmHg 94%
    22:00 +20°C° 0.3 mm 1 mps 665 mmHg 95%
    23:00 +20°C° 0.1 mm 1 mps 665 mmHg 95%

    31 March, Friday

    Time Temperature Precipitation Wind Pressure Humidity
    00:00 +20°C° 0.1 mm 1 mps 665 mmHg 94%
    01:00 +20°C° 0.1 mm 1 mps 665 mmHg 94%
    02:00 +20°C° 0.1 mm 1 mps 665 mmHg 94%
    03:00 +20°C° 0.1 mm 1 mps 665 mmHg 94%
    04:00 +20°C° 0.1 mm 1 mps 664 mmHg 94%
    05:00 +20°C° 0.2 mm 1 mps 665 mmHg 95%
    06:00 +20°C° 0.2 mm 1 mps 666 mmHg 95%
    07:00 +19°C° 0.2 mm 2 mps 666 mmHg 96%
    08:00 +20°C° 0.2 mm 2 mps 667 mmHg 94%
    09:00 +21°C° 0.2 mm 2 mps 667 mmHg 91%
    10:00 +23°C° 0.2 mm 2 mps 668 mmHg 89%
    11:00 +25°C° 0 mm 2 mps 667 mmHg 79%
    12:00 +26°C° 0 mm 1 mps 667 mmHg 70%
    13:00 +26°C° 0 mm 0 mps 667 mmHg 60%
    14:00 +28°C° 0 mm 1 mps 666 mmHg 59%
    15:00 +28°C° 0 mm 1 mps 666 mmHg 58%
    16:00 +28°C° 0 mm 1 mps 665 mmHg 57%
    17:00 +26°C° 0 mm 1 mps 665 mmHg 65%
    18:00 +24°C° 0 mm 1 mps 665 mmHg 73%
    19:00 +21°C° 0 mm 2 mps 665 mmHg 81%
    20:00 +20°C° 0.1 mm 2 mps 666 mmHg 84%
    21:00 +20°C° 0.1 mm 2 mps 666 mmHg 88%
    22:00 +19°C° 0.1 mm 2 mps 666 mmHg 91%
    23:00 +19°C° 0.1 mm 2 mps 666 mmHg 92%

    1 April, Saturday

    Time Temperature Precipitation Wind Pressure Humidity
    00:00 +19°C° 0.1 mm 2 mps 665 mmHg 92%
    01:00 +19°C° 0.1 mm 2 mps 665 mmHg 93%
    02:00 +19°C° 0 mm 2 mps 665 mmHg 94%
    03:00 +19°C° 0 mm 2 mps 665 mmHg 94%
    04:00 +19°C° 0 mm 2 mps 665 mmHg 95%
    05:00 +19°C° 0 mm 2 mps 665 mmHg 94%
    06:00 +19°C° 0 mm 2 mps 666 mmHg 92%
    07:00 +20°C° 0 mm 2 mps 666 mmHg 91%
    08:00 +22°C° 0 mm 3 mps 667 mmHg 84%
    09:00 +25°C° 0 mm 3 mps 667 mmHg 76%
    10:00 +27°C° 0 mm 4 mps 668 mmHg 69%
    11:00 +27°C° 0.1 mm 4 mps 667 mmHg 68%
    12:00 +27°C° 0.1 mm 4 mps 666 mmHg 68%
    13:00 +27°C° 0.1 mm 4 mps 665 mmHg 68%
    14:00 +26°C° 0.1 mm 3 mps 665 mmHg 70%
    15:00 +26°C° 0.1 mm 3 mps 664 mmHg 71%
    16:00 +26°C° 0.1 mm 2 mps 664 mmHg 73%
    17:00 +25°C° 0.1 mm 2 mps 664 mmHg 77%
    18:00 +24°C° 0.1 mm 2 mps 665 mmHg 81%
    19:00 +23°C° 0.1 mm 1 mps 665 mmHg 86%
    20:00 +22°C° 0.6 mm 1 mps 665 mmHg 87%
    21:00 +22°C° 0.6 mm 1 mps 665 mmHg 89%
    22:00 +21°C° 0.6 mm 1 mps 666 mmHg 91%
    23:00 +21°C° 1.7 mm 1 mps 665 mmHg 92%

    2 April, Sunday

    Time Temperature Precipitation Wind Pressure Humidity
    00:00 +20°C° 1.7 mm 1 mps 665 mmHg 93%
    01:00 +20°C° 1.7 mm 1 mps 665 mmHg 94%
    02:00 +20°C° 2.2 mm 1 mps 664 mmHg 95%
    03:00 +19°C° 2.2 mm 1 mps 664 mmHg 95%
    04:00 +17°C° 2.2 mm 0 mps 664 mmHg 96%
    05:00 +20°C° 0.8 mm 1 mps 665 mmHg 95%
    06:00 +20°C° 0.8 mm 1 mps 665 mmHg 94%
    07:00 +21°C° 0.8 mm 1 mps 666 mmHg 94%
    08:00 +21°C° 0.2 mm 2 mps 666 mmHg 88%
    09:00 +24°C° 0.2 mm 3 mps 666 mmHg 83%
    10:00 +25°C° 0.2 mm 3 mps 667 mmHg 78%
    11:00 +26°C° 0.3 mm 4 mps 666 mmHg 75%
    12:00 +27°C° 0.3 mm 4 mps 665 mmHg 71%
    13:00 +27°C° 0.3 mm 4 mps 665 mmHg 68%
    14:00 +27°C° 0.8 mm 3 mps 664 mmHg 71%
    15:00 +27°C° 0.8 mm 3 mps 664 mmHg 74%
    16:00 +26°C° 0.8 mm 2 mps 664 mmHg 77%
    17:00 +25°C° 0.7 mm 2 mps 664 mmHg 81%
    18:00 +24°C° 0.7 mm 2 mps 664 mmHg 85%
    19:00 +22°C° 0.7 mm 1 mps 664 mmHg 90%
    20:00 +22°C° 0.7 mm 1 mps 664 mmHg 90%
    21:00 +21°C° 0.7 mm 1 mps 665 mmHg 91%
    22:00 +21°C° 0.7 mm 1 mps 665 mmHg 91%
    23:00 +20°C° 0.5 mm 2 mps 665 mmHg 92%
    Show more